Showing default

GONETS D1 9, 27060

Orbit data source: Space-Track

GONETS D1 9, 27060 is a payload satellite owned by Gonets (CIS) in LEO that was launched on Fri, 28 Dec 2001 UTC via a TSIKLON-3 launch vehicle from the Plesetsk Missile And Space Complex (PKMTR). Payload-class satellites include a variety of spacecraft equipped with specific instruments for various scientific and technological missions. These include communications satellites like Starlink; space stations such as the ISS; scientific satellites like the Hubble; Earth observation satellites from companies like Planet Labs, Umbra, and HawkEye 360; GPS; miniature CubeSats for education and research; and military/defense satellites.

Loading next visibility...
Identifier
27060, 2001-058F
Orbit
LEO
Last TLE update
5 hours ago
Origin
Manufacturer
NPO PM
Mission
Non-operational Civil Communications
Bus & Motor
STRELA-3, Unknown motor
Mass
225 kg wet, 225 kg dry
Launch date (UTC)
2001-12-28 (24 years ago)
Launch vehicle
TSIKLON-3
Launch site
Plesetsk Missile And Space Complex (PKMTR)
Object type
Payload
Rocket body
Debris
Shape & HBR
Cyl + 1 Ant, 7 m
Radar Cross Section
1.798 m², Medium (>0.1 m² and < 1m²)

Expand to show TLE details & history

TLE from 5 hours ago
0 GONETS D1 9
1 27060U 01058F   25192.12816372  .00000041  00000-0  17024-3 0  9990
2 27060  82.5389  55.0770 0008644   6.3989 353.7211 12.63053296 85094
Epoch: 2025-07-11T03:04Z
TLE epoch observation values (Epoch: 2025-07-11T03:04:33.345Z)
Latitude
-0.00005°
Longitude
79.65352°
Altitude
1,406.404 km
Speed
7.16 km/s
True Right ascension
03h 40m 18s
True Declination
0° 00' 00"
Sunlit
Object was in daylight at epoch
Visualization orbit readout
Latitude
-7.77566°
Longitude
-99.45511°
Altitude
1,421.172 km
Speed
7.147 km/s
Apparent Right ascension
13h 12m 17s
Apparent Declination
-35° 00' 33"
Sunlit
Object is in full shadow
Visualization observer readout
Local Sidereal Time
20:09:34
Azimuth
248.661° W
Elevation
-31.567°
Doppler factor
1
Orbital elements
Apogee altitude
1,414.418 km
Perigee altitude
1,400.958 km
Semi-major axis
7,785.825 km
Eccentricity
0.00086
Inclination
82.5389°
RAAN
55.077°
Arg. of periapsis
6.3989°
True anomaly
Unknown
Mean anomaly
353.7211°
Eccentric anomaly
Unknown
Mean motion
3.15927 °/min
Orbital period
113.95 mins
BSTAR
0.00017024
Loading maneuver chart data...
Loading SW <> Apogee altitude chart data...
Loading historical data...
Loading historical data...
Loading historical data...
Loading historical data...
Loading historical data...
Loading historical data...
Loading historical data...

GONETS D1 9 Visibility forecast

Observer location: undefined°, undefined°

Span
Click to sort rows by Start time (UTC) header in descending order
Start Az.
Max El. time (UTC)
Max El. Az.
Max El.
End time (UTC)
End Az.
13 mins2025-07-11 14:35:07.274Z145.531° SSE2025-07-11 14:41:07.274Z93.008° ESE30.687°2025-07-11 14:48:07.274Z26.509° NE
14 mins2025-07-11 16:30:07.274Z219.217° SW2025-07-11 16:36:07.274Z281.141° WNW35.307°2025-07-11 16:44:07.274Z356.034° N
6 mins2025-07-12 00:38:07.274Z38.797° NE2025-07-12 00:41:07.274Z61.543° ENE13.544°2025-07-12 00:44:07.274Z83.972° E
15 mins2025-07-12 02:30:07.274Z356.553° N2025-07-12 02:37:07.274Z62.143° ENE43.887°2025-07-12 02:45:07.274Z166.187° S
10 mins2025-07-12 04:27:07.274Z315.826° NNW2025-07-12 04:31:07.274Z282.793° WNW19.804°2025-07-12 04:37:07.274Z235.831° WSW
|